Find Starlink 32876

NORAD ID: 63151 Int'l Des: 2025-043 Owner: SPXS Country: US Constellation: starlink operational
LEOCIRCULAR

当前视图

正在加载3D地球...

About Starlink 32876

Starlink 32876 (NORAD 63151) is a starlink constellation satellite (v2 mini) launched Mar 3, 2025 by SPXS of US. It operates in LEO, CIRCULAR orbit with a mass of 730.00 kg.

即将过境

Passes for default location (London). Set your location on the main map for personalized predictions.

高度历史

Loading altitude history...

两行轨道根数

1 63151U 25043V 26262.99242855 .00016572 00000-0 60991-3 0 9991
2 63151 42.9993 358.4514 0001261 252.0714 108.0001 15.27605299 87084
Epoch: Sep 19, 2026 • Age: 29 hours

当前状态

高度 482.0 km
远地点 / 近地点 N/A
速度 7.63 km/s
星下点 7.94°N, 91.02°E
发射日期 Mar 3, 2025
运行时间 1.5 years
类型 internet

技术详情

分类 Payload
质量 730.00 kg
干质量 700.00 kg
长度 0.30 m
跨度 29.00 m
形状 ? Box + pan
制造商 SPXS
平台类型 Starlink V2M
阶段状态 In Orbit
所有者/国家 SPXS/US

Most Searched